Overview Statistics Trail Chart Weather Telemetry Raw packets
 

This is the latest recevied weather packets stored in our database for station/object KO4LCK. If no packets are shown the sender has not sent any weather packets the latest 10 day(s).

<< 25 26 27 28 29 30 31 >>
Time Temp. Humidity Pressure Rain* Wind** Luminosity Snow
1788474255 34.44° C 53% 1015.7 hPa 0 mm - 123 W/m² -
1788473948 34.44° C 52% 1015.7 hPa 0 mm - 112 W/m² -
1788473648 34.44° C 52% 1015.5 hPa 0 mm - 149 W/m² -
1788473347 34.44° C 53% 1015.6 hPa 0 mm - 183 W/m² -
1788473046 34.44° C 52% 1015.8 hPa 0 mm - 79 W/m² -
1788472743 34.44° C 52% 1015.5 hPa 0 mm - 80 W/m² -
1788472441 34.44° C 50% 1015.7 hPa 0 mm - 79 W/m² -
1788472138 35° C 49% 1015.6 hPa 0 mm - 64 W/m² -
1788471835 35.56° C 48% 1015.5 hPa 0 mm - 74 W/m² -
1788471534 35.56° C 47% 1015.5 hPa 0 mm - 126 W/m² -
1788471230 36.67° C 46% 1015.8 hPa 0 mm - 317 W/m² -
1788470926 37.22° C 42% 1015.4 hPa 0 mm - 335 W/m² -
1788470622 36.67° C 43% 1015.5 hPa 0 mm - 295 W/m² -
1788470321 36.67° C 42% 1015.8 hPa 0 mm - 305 W/m² -
1788470018 37.22° C 42% 1015.6 hPa 0 mm - 367 W/m² -
1788469714 37.78° C 41% 1015.5 hPa 0 mm - 132 W/m² -
1788469408 37.78° C 41% 1015.7 hPa 0 mm - 394 W/m² -
1788469108 37.78° C 40% 1015.8 hPa 0 mm - 417 W/m² -
1788468807 37.78° C 40% 1015.7 hPa 0 mm - 441 W/m² -
1788468503 37.78° C 41% 1015.9 hPa 0 mm - 441 W/m² -
1788468199 37.22° C 41% 1016.1 hPa 0 mm - 457 W/m² -
1788467894 36.67° C 42% 1016 hPa 0 mm - 473 W/m² -
1788467590 36.67° C 42% 1016.3 hPa 0 mm - 484 W/m² -
1788467288 37.78° C 42% 1016.1 hPa 0 mm - 502 W/m² -
1788466985 37.22° C 43% 1016.3 hPa 0 mm - 520 W/m² -

* Rain latest hour (hover to see other rain measurements)
** Current wind speed in m/s (hover to see current wind gust speed)